1501524000.68,9772,22.44,74950.3,10.09,6.79,5.49,0,*7E
1501524001.86,9773,22.44,74944.8,10.09,6.79,5.41,0,*77
1501524003.03,9774,22.44,74948.3,10.09,6.79,5.49,0,*78
1501524004.21,9775,22.44,74948.8,10.09,6.79,5.49,0,*79
1501524005.38,9776,22.44,74950.8,10.09,6.79,5.41,0,*72
1501524006.62,9777,22.44,74950.8,10.07,6.73,5.49,0,*7F
1501524007.85,9778,22.5,74954.8,10.07,6.73,5.49,0,*70
1501524009.03,9779,22.44,74950.8,10.09,6.79,5.59,0,*74
1501524010.21,9780,22.44,74950.0,10.09,6.79,5.71,0,*78
1501524011.43,9781,22.44,74952.0,10.09,6.87,5.73,0,*7A
1501524012.64,9782,22.44,74950.0,10.09,6.97,5.81,0,*75
1501524013.85,9783,22.44,74948.8,10.07,6.93,5.71,0,*71
1501524015.06,9784,22.44,74948.8,10.09,6.97,5.81,0,*73
1501524016.25,9785,22.44,74950.0,10.09,7.01,5.73,0,*71
1501524017.45,9786,22.44,74950.0,10.09,7.09,5.81,0,*77
1501524018.71,9787,22.44,74950.3,10.11,7.11,5.85,0,*72
1501524019.96,9788,22.44,74950.8,10.11,7.19,5.85,0,*75
1501524021.22,9789,22.44,74948.3,10.11,7.23,5.85,0,*7D
1501524022.48,9790,22.44,74948.3,10.11,7.27,5.81,0,*75
1501524023.7,9791,22.44,74948.5,10.11,7.33,5.81,0,*71
1501524024.93,9792,22.44,74952.0,10.11,7.33,5.81,0,*72
1501524026.13,9793,22.44,74950.5,10.13,7.41,5.77,0,*7D
1501524027.31,9794,22.44,74952.0,10.13,7.37,5.67,0,*7A
1501524028.51,9795,22.44,74950.5,10.11,7.33,5.59,0,*70
1501524029.72,9796,22.44,74950.0,10.11,7.45,5.63,0,*7B
1501524030.94,9797,22.44,74952.8,10.13,7.47,5.55,0,*7F
1501524032.15,9798,22.44,74954.8,10.13,7.51,5.55,0,*77
1501524033.35,9799,22.44,74952.3,10.13,7.51,5.55,0,*76
1501524034.52,9800,22.44,74952.5,10.13,7.51,5.45,0,*78
1501524035.7,9801,22.44,74948.8,10.13,7.59,5.41,0,*75
1501524036.87,9802,22.44,74950.3,10.13,7.59,5.29,0,*78
1501524038.06,9803,22.44,74950.8,10.13,7.59,5.19,0,*7A
1501524039.26,9804,22.44,74950.5,10.13,7.59,5.05,0,*70
1501524040.49,9805,22.44,74950.8,10.13,7.61,4.93,0,*74
1501524041.69,9806,22.44,74952.3,10.13,7.61,4.81,0,*74
1501524042.95,9807,22.44,74950.3,10.15,7.61,4.59,0,*76
1501524044.12,9808,22.44,74950.5,10.13,7.59,4.49,0,*75
1501524045.33,9809,22.44,74950.8,10.15,7.59,4.33,0,*7F
1501524046.5,9810,22.44,74946.8,10.13,7.59,4.15,0,*75
1501524047.7,9811,22.44,74952.5,10.13,7.51,4.01,0,*79
1501524048.88,9812,22.44,74948.8,10.13,7.51,3.81,0,*75
1501524050.08,9813,22.44,74952.8,10.13,7.51,3.67,0,*7C
1501524051.28,9814,22.44,74948.5,10.13,7.37,3.45,0,*7B
1501524052.49,9815,22.44,74952.3,10.13,7.29,3.33,0,*74
1501524053.74,9816,22.44,74948.5,10.15,7.23,3.23,0,*7A
1501524054.97,9817,22.44,74954.0,10.15,7.11,2.99,0,*7A
1501524056.17,9818,22.44,74952.8,10.15,6.93,2.95,0,*72
1501524057.39,9819,22.44,74950.8,10.13,6.91,2.73,0,*7F
1501524058.62,9820,22.44,74950.5,10.13,6.73,2.69,0,*72
1501524059.85,9821,22.44,74950.5,10.13,6.57,2.47,0,*79
1501524061.05,9822,22.44,74948.5,10.13,6.35,2.27,0,*78
1501524062.26,9823,22.44,74954.8,10.13,6.25,2.01,0,*7C
1501524063.49,9824,22.44,74952.5,10.13,6.13,2.01,0,*7E
1501524064.67,9825,22.44,74952.5,10.13,5.99,1.79,0,*72
1501524065.88,9826,22.44,74950.0,10.13,5.77,1.55,0,*7F
1501524067.11,9827,22.44,74950.0,10.15,5.63,1.33,0,*7D
1501524068.35,9828,22.44,74950.5,10.15,5.51,1.17,0,*75
1501524069.58,9829,22.44,74952.3,10.15,5.33,0.91,0,*4F
1501524070.8,9830,22.44,74950.8,10.15,5.11,0.71,0,*49
1501524072.03,9831,22.44,74952.3,10.15,5.05,0.43,0,*4C
1501524073.24,9832,22.44,74950.8,10.15,4.85,0.17,0,*47
1501524074.45,9833,22.44,74948.3,10.13,4.63,-0.15,0,*67
1501524075.66,9834,22.44,74952.5,10.15,4.37,-0.41,0,*66
1501524076.85,9835,22.44,74950.8,10.13,4.11,-0.77,0,*60
1501524078.08,9836,22.44,74950.5,10.13,3.79,-1.05,0,*5E
1501524079.29,9837,22.44,74952.8,10.13,3.45,-1.29,0,*5E
1501524080.5,9838,22.44,74952.3,10.13,3.07,-1.55,0,*5C
1501524081.71,9839,22.44,74950.3,10.13,2.81,-1.75,0,*50
1501524082.94,9840,22.44,74952.0,10.13,2.47,-1.91,0,*5E
1501524084.17,9841,22.44,74948.8,10.13,2.13,-2.07,0,*52
1501524085.41,9842,22.44,74950.3,10.13,1.89,-2.07,0,*51
1501524086.64,9843,22.44,74954.0,10.13,1.67,-2.03,0,*54
1501524087.84,9844,22.44,74954.0,10.13,1.43,-1.75,0,*57
1501524089.06,9845,22.44,74948.3,10.13,1.33,-1.51,0,*57
1501524090.27,9846,22.44,74950.3,10.13,1.25,-1.29,0,*5C
1501524091.49,9847,22.44,74948.0,10.13,1.25,-0.93,0,*6D
1501524092.7,9848,22.44,74950.3,10.13,1.17,-0.77,0,*69
1501524093.91,9849,22.44,74948.3,10.13,1.17,-0.45,0,*69
1501524095.12,9850,22.44,74946.8,10.13,1.29,-0.29,0,*66
1501524096.32,9851,22.44,74946.3,10.13,1.37,-0.03,0,*50
1501524097.55,9852,22.5,74954.5,10.13,1.55,0.21,0,*4A
1501524098.8,9853,22.44,74952.8,10.11,1.71,0.29,0,*47
1501524100.02,9854,22.44,74946.3,10.13,1.89,0.51,0,*4A
1501524101.27,9855,22.44,74946.5,10.11,2.05,0.67,0,*4B
1501524102.53,9856,22.44,74950.8,10.11,2.43,0.91,0,*43
1501524103.76,9857,22.44,74950.3,10.11,2.65,1.09,0,*76
1501524104.99,9858,22.44,74950.8,10.11,2.95,1.21,0,*7C
1501524106.22,9859,22.44,74950.8,10.11,3.25,1.37,0,*70
1501524107.45,9860,22.44,74950.3,10.11,3.41,1.41,0,*79
1501524108.67,9861,22.44,74948.3,10.13,3.71,1.63,0,*79
1501524109.9,9862,22.44,74946.5,10.11,3.79,1.75,0,*77
1501524111.12,9863,22.44,74946.5,10.13,4.01,1.97,0,*70
1501524112.36,9864,22.44,74950.8,10.11,4.07,2.13,0,*7C
1501524113.59,9865,22.44,74948.8,10.11,4.11,2.43,0,*7F
1501524114.82,9866,22.44,74950.0,10.11,4.23,2.59,0,*76
1501524116.02,9867,22.44,74950.0,10.13,4.41,2.81,0,*74
1501524117.25,9868,22.44,74948.0,10.13,4.59,3.07,0,*7D
1501524118.48,9869,22.44,74950.0,10.13,4.71,3.23,0,*70
1501524119.68,9870,22.44,74950.5,10.13,4.81,3.33,0,*76
1501524120.9,9871,22.44,74950.5,10.13,4.93,3.53,0,*72
1501524122.1,9872,22.44,74950.3,10.13,5.05,3.59,0,*75
1501524123.33,9873,22.44,74950.8,10.15,5.11,3.71,0,*7D
1501524124.56,9874,22.44,74950.8,10.15,5.19,3.67,0,*75
1501524125.75,9875,22.44,74946.8,10.13,5.29,3.71,0,*76
1501524126.93,9876,22.44,74946.5,10.13,5.41,3.81,0,*74
1501524128.1,9877,22.44,74950.8,10.13,5.45,3.81,0,*71
1501524129.27,9878,22.44,74948.8,10.13,5.45,3.81,0,*7E
1501524130.5,9879,22.44,74948.3,10.11,5.41,3.75,0,*72
1501524131.72,9880,22.44,74946.3,10.13,5.51,3.67,0,*74
1501524132.91,9881,22.44,74944.8,10.13,5.45,3.67,0,*70
1501524134.1,9882,22.44,74946.8,10.13,5.45,3.67,0,*73
1501524135.34,9883,22.44,74948.0,10.15,5.51,3.67,0,*71
1501524136.56,9884,22.44,74950.0,10.15,5.51,3.55,0,*77
1501524137.81,9885,22.44,74948.3,10.15,5.51,3.67,0,*77
1501524138.98,9886,22.44,74948.3,10.17,5.71,3.81,0,*7C
1501524140.19,9887,22.44,74946.3,10.15,5.67,3.89,0,*70
1501524141.43,9888,22.44,74948.3,10.15,5.77,4.05,0,*7D
1501524142.66,9889,22.44,74950.0,10.15,5.85,4.11,0,*74
1501524143.88,9890,22.44,74948.5,10.15,5.89,4.15,0,*74
1501524145.12,9891,22.44,74950.3,10.15,5.93,4.23,0,*7B
1501524146.34,9892,22.44,74948.8,10.15,5.93,4.27,0,*7C
1501524147.58,9893,22.44,74948.5,10.15,5.89,4.33,0,*73
1501524148.8,9894,22.44,74952.3,10.15,5.77,4.33,0,*75
1501524150.03,9895,22.44,74948.5,10.15,5.73,4.33,0,*70
1501524151.21,9896,22.44,74946.0,10.13,5.63,4.41,0,*71
1501524152.41,9897,22.44,74948.3,10.17,5.55,4.53,0,*72
1501524153.63,9898,22.44,74944.5,10.17,5.55,4.79,0,*75
1501524154.88,9899,22.44,74948.8,10.15,5.51,4.97,0,*72
1501524156.13,9900,22.44,74944.3,10.15,5.55,4.97,0,*77
1501524157.34,9901,22.44,74948.3,10.15,5.67,5.19,0,*70
1501524158.56,9902,22.44,74948.0,10.15,5.77,5.41,0,*7F
1501524159.81,9903,22.44,74950.8,10.15,5.85,5.51,0,*72
1501524161.02,9904,22.44,74948.8,10.17,5.93,5.59,0,*78
1501524162.25,9905,22.44,74948.5,10.15,6.03,5.73,0,*79
1501524163.48,9906,22.44,74952.0,10.15,6.11,5.77,0,*7D
1501524164.71,9907,22.44,74948.0,10.15,6.21,5.85,0,*72
1501524165.92,9908,22.44,74948.8,10.17,6.25,5.81,0,*7F
1501524167.1,9909,22.44,74950.8,10.17,6.29,5.95,0,*77
1501524168.31,9910,22.44,74952.3,10.17,6.35,5.95,0,*72
1501524169.52,9911,22.44,74952.3,10.17,6.47,6.03,0,*7A
1501524170.72,9912,22.44,74950.5,10.21,6.61,6.07,0,*7C
1501524171.92,9913,22.44,74950.5,10.21,6.65,6.07,0,*79
1501524173.1,9914,22.44,74948.3,10.21,6.79,5.95,0,*7B
1501524174.32,9915,22.44,74950.0,10.21,6.91,5.93,0,*7A
1501524175.55,9916,22.44,74948.5,10.21,6.91,5.85,0,*7E
1501524176.76,9917,22.44,74950.8,10.17,6.87,5.59,0,*7C
1501524177.93,9918,22.44,74948.3,10.17,6.93,5.49,0,*77
1501524179.11,9919,22.44,74950.8,10.17,6.93,5.29,0,*70
1501524180.29,9920,22.44,74948.3,10.17,7.05,5.15,0,*7B
1501524181.5,9921,22.44,74948.3,10.21,7.09,4.93,0,*7C
1501524182.7,9922,22.44,74948.3,10.17,7.05,4.63,0,*79
1501524183.88,9923,22.44,74950.0,10.17,6.97,4.27,0,*72
1501524185.05,9924,22.44,74950.3,10.21,7.09,4.11,0,*73
1501524186.26,9925,22.44,74950.3,10.21,6.97,3.75,0,*71
1501524187.46,9926,22.44,74948.5,10.21,6.97,3.53,0,*76
1501524188.66,9927,22.44,74948.0,10.17,6.83,3.23,0,*70
1501524189.86,9928,22.44,74950.8,10.17,6.75,2.85,0,*7B
1501524191.11,9929,22.44,74948.5,10.15,6.61,2.59,0,*7C
1501524192.31,9930,22.44,74950.8,10.21,6.53,2.35,0,*78
1501524193.54,9931,22.44,74946.0,10.21,6.43,2.09,0,*77
1501524194.72,9932,22.44,74948.5,10.21,6.21,1.83,0,*71
1501524195.92,9933,22.44,74948.3,10.21,5.99,1.63,0,*7E
1501524197.11,9934,22.44,74950.5,10.21,5.81,1.41,0,*70
1501524198.29,9935,22.44,74946.5,10.21,5.51,0.97,0,*46
1501524199.49,9936,22.44,74950.0,10.17,5.23,0.55,0,*4B
1501524200.69,9937,22.44,74950.0,10.17,4.89,0.37,0,*4F
1501524201.89,9938,22.44,74950.3,10.21,4.59,0.05,0,*79
1501524203.09,9939,22.44,74952.3,10.21,4.31,-0.33,0,*6E
1501524204.27,9940,22.44,74952.0,10.21,4.07,-0.69,0,*6A
1501524205.48,9941,22.44,74952.0,10.21,3.79,-0.81,0,*63
1501524206.7,9942,22.44,74948.0,10.17,3.49,-1.05,0,*5B
1501524207.91,9943,22.44,74948.5,10.17,3.37,-1.29,0,*5D
1501524209.15,9944,22.44,74950.0,10.17,3.15,-1.39,0,*5B
1501524210.36,9945,22.44,74952.0,10.17,3.03,-1.63,0,*52
1501524211.55,9946,22.44,74952.3,10.17,2.91,-1.71,0,*58
1501524212.77,9947,22.44,74950.8,10.17,2.85,-1.91,0,*52
1501524213.98,9948,22.44,74948.3,10.17,2.73,-2.35,0,*59
1501524215.18,9949,22.44,74948.5,10.17,2.51,-2.39,0,*54
1501524216.39,9950,22.44,74950.8,10.17,2.27,-2.75,0,*55
1501524217.59,9951,22.44,74948.0,10.17,1.89,-3.15,0,*54
1501524218.79,9952,22.44,74946.5,10.17,1.67,-3.23,0,*52
1501524220.0,9953,22.44,74950.5,10.21,1.33,-3.39,0,*5C
1501524221.2,9954,22.44,74948.3,10.17,0.97,-3.55,0,*6B
1501524222.41,9955,22.44,74946.3,10.17,0.71,-3.55,0,*62
1501524223.63,9956,22.44,74950.3,10.17,0.25,-3.67,0,*61
1501524224.81,9957,22.44,74950.0,10.17,0.01,-3.67,0,*56
1501524226.0,9958,22.44,74950.3,10.17,-0.29,-3.55,0,*4F
1501524227.2,9959,22.44,74950.8,10.21,-0.57,-3.43,0,*45
1501524228.41,9960,22.44,74950.8,10.17,-0.85,-3.15,0,*46
1501524229.62,9961,22.44,74954.0,10.17,-1.05,-2.91,0,*73
1501524230.84,9962,22.44,74954.3,10.17,-1.17,-2.63,0,*7E
1501524232.03,9963,22.44,74952.5,10.17,-1.29,-2.27,0,*72
1501524233.27,9964,22.44,74948.3,10.15,-1.33,-1.91,0,*72
1501524234.48,9965,22.44,74948.8,10.15,-1.33,-1.55,0,*7B
1501524235.68,9966,22.44,74950.5,10.17,-1.17,-1.17,0,*7A
1501524236.93,9967,22.44,74948.8,10.15,-1.01,-0.89,0,*48
1501524238.14,9968,22.44,74950.3,10.15,-0.81,-0.57,0,*7D
1501524239.32,9969,22.44,74948.0,10.17,-0.61,-0.37,0,*76
1501524240.54,9970,22.44,74948.5,10.15,-0.33,-0.27,0,*7A
1501524241.72,9971,22.44,74948.8,10.17,-0.07,-0.15,0,*4F
1501524242.91,9972,22.44,74948.8,10.15,0.09,-0.03,0,*5A
1501524244.14,9973,22.44,74950.5,10.15,0.29,0.17,0,*71
1501524245.39,9974,22.44,74950.8,10.15,0.55,0.33,0,*7B
1501524246.63,9975,22.44,74944.8,10.15,0.83,0.51,0,*75
1501524247.88,9976,22.44,74950.3,10.15,1.17,0.79,0,*40
1501524249.08,9977,22.44,74944.8,10.17,1.47,1.05,0,*7C
1501524250.33,9978,22.44,74950.5,10.15,1.85,1.13,0,*78
1501524251.55,9979,22.44,74948.5,10.15,2.01,1.41,0,*71
1501524252.8,9980,22.44,74950.3,10.15,2.13,1.43,0,*76
1501524254.02,9981,22.44,74950.0,10.15,2.27,1.43,0,*70
1501524255.27,9982,22.44,74946.3,10.15,2.39,1.51,0,*7F
1501524256.52,9983,22.44,74946.3,10.15,2.47,1.43,0,*74
1501524257.77,9984,22.44,74944.8,10.15,2.59,1.33,0,*7B
1501524259.0,9985,22.44,74944.0,10.15,2.61,1.33,0,*71
1501524260.25,9986,22.44,74944.5,10.15,2.59,1.17,0,*7F
1501524261.48,9987,22.44,74944.0,10.15,2.51,1.01,0,*71
1501524262.73,9988,22.44,74944.8,10.15,2.47,0.79,0,*47
1501524263.95,9989,22.44,74946.5,10.15,2.35,0.59,0,*41
1501524265.17,9990,22.44,74950.3,10.15,2.27,0.51,0,*42
1501524266.42,9991,22.44,74950.0,10.15,2.25,0.29,0,*4E
1501524267.64,9992,22.44,74950.0,10.15,2.31,0.17,0,*45
1501524268.84,9993,22.44,74950.5,10.15,2.27,0.09,0,*7C
1501524270.06,9994,22.44,74952.5,10.15,2.39,0.09,0,*74
1501524271.29,9995,22.44,74948.3,10.15,2.25,0.05,0,*74
1501524272.52,9996,22.44,74948.5,10.15,2.13,-0.15,0,*6E
1501524273.75,9997,22.44,74948.5,10.15,2.01,-0.07,0,*5F
1501524274.98,9998,22.44,74948.3,10.15,1.97,-0.07,0,*5C
1501524276.2,9999,22.44,74950.5,10.15,1.89,-0.07,0,*52
1501524277.41,10000,22.44,74950.0,10.15,1.75,-0.19,0,*5F
1501524278.67,10001,22.44,74944.8,10.15,1.63,-0.27,0,*54
1501524279.87,10002,22.44,74946.5,10.13,1.43,-0.29,0,*5D
1501524281.09,10003,22.44,74950.0,10.13,1.29,-0.33,0,*5B
1501524282.32,10004,22.44,74948.8,10.13,1.13,-0.41,0,*50
1501524283.52,10005,22.44,74948.3,10.13,0.83,-0.33,0,*6C
1501524284.73,10006,22.44,74950.3,10.13,0.79,-0.33,0,*6A
1501524285.93,10007,22.44,74946.3,10.13,0.71,-0.33,0,*63
1501524287.13,10008,22.44,74946.3,10.13,0.67,-0.41,0,*6E
1501524288.3,10009,22.44,74944.8,10.13,0.43,-0.45,0,*6D
1501524289.5,10010,22.44,74940.5,10.13,0.33,-0.65,0,*60
1501524290.69,10011,22.44,74942.3,10.13,0.21,-0.69,0,*6E
1501524291.91,10012,22.44,74946.5,10.13,0.29,-0.89,0,*6B
1501524293.14,10013,22.44,74944.3,10.13,0.17,-1.05,0,*52
1501524294.34,10014,22.44,74948.0,10.13,0.29,-1.17,0,*5B
1501524295.55,10015,22.44,74946.8,10.13,0.21,-1.21,0,*57
1501524296.78,10016,22.44,74944.3,10.13,0.21,-1.43,0,*50
1501524298.01,10017,22.44,74944.5,10.11,0.17,-1.59,0,*5D
1501524299.21,10018,22.44,74948.5,10.13,0.21,-1.75,0,*5B
1501524300.43,10019,22.44,74944.8,10.13,0.29,-1.95,0,*5C
1501524301.64,10020,22.44,74948.3,10.13,0.41,-2.15,0,*53
1501524302.81,10021,22.44,74948.8,10.13,0.43,-2.43,0,*53
1501524304.04,10022,22.44,74950.5,10.13,0.51,-2.67,0,*55
1501524305.24,10023,22.44,74948.8,10.13,0.55,-2.91,0,*59
1501524306.44,10024,22.44,74946.8,10.13,0.59,-3.19,0,*53
1501524307.7,10025,22.44,74950.5,10.15,0.71,-3.59,0,*5A
1501524308.9,10026,22.44,74950.3,10.13,0.71,-3.95,0,*5F
1501524310.11,10027,22.44,74946.0,10.13,0.83,-4.49,0,*55
1501524311.34,10028,22.44,74948.3,10.13,0.83,-4.93,0,*5D
1501524312.54,10029,22.44,74948.0,10.13,0.83,-5.47,0,*54
1501524313.77,10030,22.44,74950.0,10.11,0.63,-6.09,0,*59
1501524314.97,10031,22.44,74948.3,10.13,0.67,-6.55,0,*57
1501524316.23,10032,22.44,74950.8,10.11,0.51,-7.01,0,*53
1501524317.43,10033,22.44,74948.0,10.13,0.21,-7.49,0,*5B
1501524318.64,10034,22.44,74948.5,10.13,-0.07,-8.11,0,*47
1501524319.85,10035,22.44,74948.0,10.11,-0.57,-8.75,0,*73
1501524321.1,10036,22.44,74952.0,10.11,-1.13,-9.27,0,*47
1501524322.31,10037,22.44,74950.5,10.13,-1.51,-9.49,0,*4A
1501524323.57,10038,22.44,74944.5,10.11,-1.99,-9.71,0,*48
1501524324.79,10039,22.44,74948.5,10.11,-2.35,-9.79,0,*44
1501524326.03,10040,22.44,74946.5,10.11,-2.67,-9.71,0,*45
1501524327.28,10041,22.44,74946.0,10.11,-2.87,-9.45,0,*4D
1501524328.53,10042,22.44,74948.0,10.11,-3.11,-9.11,0,*41
1501524329.74,10043,22.44,74950.8,10.11,-3.23,-8.71,0,*46
1501524331.0,10044,22.44,74950.0,10.11,-3.75,-8.51,0,*40
1501524332.23,10045,22.44,74948.0,10.09,-3.95,-8.07,0,*45
1501524333.45,10046,22.44,74950.0,10.09,-4.13,-7.69,0,*48
1501524334.66,10047,22.44,74950.8,10.09,-4.13,-7.27,0,*43
1501524335.85,10048,22.44,74950.8,10.09,-4.09,-6.69,0,*4C
1501524337.08,10049,22.44,74948.5,10.09,-3.95,-6.19,0,*48
1501524338.29,10050,22.44,74944.5,10.09,-3.83,-5.55,0,*4C
1501524339.53,10051,22.44,74948.3,10.09,-3.71,-5.11,0,*40
1501524340.78,10052,22.44,74950.0,10.09,-3.59,-4.73,0,*4C
1501524342.02,10053,22.44,74948.5,10.07,-3.55,-4.45,0,*4A
1501524343.27,10054,22.44,74950.5,10.11,-3.47,-4.09,0,*41
1501524344.49,10055,22.44,74948.5,10.09,-3.43,-3.75,0,*41
1501524345.68,10056,22.44,74946.8,10.09,-3.23,-3.35,0,*40
1501524346.9,10057,22.44,74950.0,10.07,-2.91,-3.03,0,*42
1501524348.17,10058,22.44,74952.3,10.07,-2.51,-2.63,0,*46
1501524349.4,10059,22.44,74950.8,10.07,-2.15,-2.35,0,*44
1501524350.63,10060,22.44,74948.3,10.09,-1.83,-1.95,0,*45
1501524351.85,10061,22.44,74948.0,10.07,-1.63,-1.63,0,*4D
1501524353.08,10062,22.44,74950.8,10.09,-1.21,-1.35,0,*45
1501524354.29,10063,22.44,74948.3,10.09,-0.93,-1.21,0,*79
1501524355.52,10064,22.44,74948.3,10.07,-0.61,-1.01,0,*7F
1501524356.78,10065,22.44,74950.0,10.07,-0.23,-0.97,0,*46
1501524357.98,10066,22.44,74946.0,10.09,0.05,-0.85,0,*51
1501524359.2,10067,22.44,74948.0,10.07,0.33,-0.81,0,*6F
1501524360.45,10068,22.44,74948.3,10.07,0.51,-0.85,0,*60
1501524361.69,10069,22.44,74946.3,10.07,0.71,-0.69,0,*61
1501524362.9,10070,22.44,74946.8,10.09,1.13,-0.69,0,*52
1501524364.12,10071,22.44,74948.0,10.09,1.21,-0.69,0,*52
1501524365.37,10072,22.44,74948.0,10.07,1.33,-0.77,0,*53
1501524366.61,10073,22.44,74944.3,10.07,1.43,-0.77,0,*55
1501524367.83,10074,22.44,74948.5,10.09,1.47,-0.93,0,*52
1501524369.06,10075,22.44,74946.5,10.09,1.47,-0.93,0,*53
1501524370.31,10076,22.44,74948.8,10.07,1.47,-0.97,0,*5A
1501524371.55,10077,22.44,74948.0,10.09,1.59,-1.05,0,*60
1501524372.78,10078,22.44,74948.0,10.09,1.71,-0.97,0,*5F
1501524374.02,10079,22.44,74946.0,10.07,1.79,-1.09,0,*6E
1501524375.25,10080,22.44,74952.3,10.09,1.85,-0.97,0,*53
1501524376.52,10081,22.44,74950.3,10.07,1.89,-1.01,0,*6E
1501524377.74,10082,22.44,74948.3,10.09,1.93,-0.97,0,*56
1501524379.0,10083,22.44,74950.5,10.07,1.93,-0.97,0,*59
1501524380.24,10084,22.44,74952.3,10.07,1.89,-0.77,0,*5B
1501524381.45,10085,22.44,74950.8,10.09,1.97,-0.69,0,*54
1501524382.66,10086,22.44,74948.8,10.09,1.97,-0.57,0,*5A
1501524383.87,10087,22.44,74952.5,10.09,1.97,-0.49,0,*54
1501524385.09,10088,22.44,74948.0,10.09,2.13,-0.49,0,*54
1501524386.33,10089,22.44,74950.8,10.07,2.09,-0.49,0,*50
1501524387.57,10090,22.44,74948.5,10.07,2.09,-0.33,0,*55
1501524388.75,10091,22.44,74948.3,10.09,2.31,-0.29,0,*5A
1501524389.96,10092,22.44,74950.8,10.09,2.43,-0.29,0,*5C
1501524391.16,10093,22.44,74950.8,10.09,2.59,-0.29,0,*56
1501524392.35,10094,22.44,74950.5,10.09,2.65,-0.29,0,*5E
1501524393.55,10095,22.44,74946.8,10.09,2.69,-0.19,0,*50
1501524394.77,10096,22.44,74944.5,10.09,2.77,-0.11,0,*54
1501524395.98,10097,22.44,74950.5,10.09,2.77,-0.11,0,*55
1501524397.18,10098,22.44,74950.5,10.09,2.77,-0.07,0,*6D
1501524398.38,10099,22.44,74948.0,10.09,2.77,0.01,0,*47
1501524399.57,10100,22.44,74950.3,10.13,2.69,0.05,0,*46
1501524400.78,10101,22.44,74950.3,10.11,2.65,0.01,0,*4D
1501524402.01,10102,22.44,74948.8,10.11,2.55,-0.07,0,*66
1501524403.27,10103,22.44,74948.5,10.11,2.59,-0.23,0,*5D
1501524404.51,10104,22.44,74946.5,10.11,2.69,-0.29,0,*53
1501524405.74,10105,22.44,74948.3,10.11,2.69,-0.45,0,*58
1501524406.97,10106,22.44,74948.5,10.11,2.77,-0.61,0,*52
1501524408.2,10107,22.44,74948.8,10.09,2.77,-0.85,0,*50
1501524409.43,10108,22.44,74948.5,10.09,2.69,-1.09,0,*65
1501524410.64,10109,22.44,74950.0,10.09,2.69,-1.33,0,*6D
1501524411.87,10110,22.44,74948.8,10.09,2.77,-1.43,0,*6D
1501524413.08,10111,22.44,74950.3,10.09,2.77,-1.59,0,*67
1501524414.31,10112,22.44,74950.8,10.09,2.69,-1.95,0,*6B
1501524415.5,10113,22.44,74950.0,10.09,2.65,-2.23,0,*68
1501524416.71,10114,22.44,74954.5,10.09,2.43,-2.43,0,*6D
1501524417.93,10115,22.44,74948.5,10.09,2.31,-2.47,0,*6D
1501524419.2,10116,22.44,74950.3,10.11,2.09,-2.71,0,*69
1501524420.41,10117,22.44,74950.8,10.09,1.85,-2.83,0,*6B
1501524421.63,10118,22.44,74950.0,10.09,1.63,-2.95,0,*6B
1501524422.81,10119,22.44,74952.0,10.09,1.41,-3.19,0,*6F
1501524424.03,10120,22.44,74948.5,10.09,1.09,-3.31,0,*63
1501524425.25,10121,22.44,74950.3,10.09,0.63,-3.71,0,*5B
1501524426.47,10122,22.44,74948.3,10.09,0.17,-4.01,0,*5B
1501524427.68,10123,22.44,74950.3,10.09,-0.23,-4.13,0,*73
1501524428.9,10124,22.44,74952.0,10.11,-0.61,-4.25,0,*7E
1501524430.14,10125,22.44,74950.0,10.11,-0.85,-4.09,0,*7B
1501524431.41,10126,22.44,74950.8,10.07,-1.13,-4.01,0,*49
1501524432.63,10127,22.44,74948.3,10.13,-1.21,-3.59,0,*46
1501524433.9,10128,22.44,74948.3,10.11,-1.47,-3.51,0,*43
1501524435.08,10129,22.44,74954.0,10.09,-1.55,-3.23,0,*4D
1501524436.26,10130,22.44,74950.0,10.09,-1.79,-3.23,0,*4B
1501524437.49,10131,22.44,74950.8,10.09,-1.99,-2.99,0,*44
1501524438.74,10132,22.44,74950.3,10.09,-2.11,-2.67,0,*45
1501524439.93,10133,22.44,74950.5,10.09,-2.23,-2.43,0,*43
1501524441.15,10134,22.44,74946.5,10.07,-2.27,-2.15,0,*4D
1501524442.37,10135,22.44,74952.0,10.07,-2.23,-1.75,0,*4D
1501524443.58,10136,22.44,74952.5,10.09,-1.87,-1.25,0,*48
1501524444.85,10137,22.44,74950.8,10.07,-1.83,-1.01,0,*45
1501524446.04,10138,22.44,74950.0,10.09,-1.59,-0.57,0,*71
1501524447.25,10139,22.44,74948.5,10.09,-1.13,-0.29,0,*77
1501524448.46,10140,22.44,74948.8,10.07,-0.73,-0.03,0,*78
1501524449.69,10141,22.44,74948.5,10.07,-0.15,0.33,0,*67
1501524450.9,10142,22.38,74944.8,10.09,0.25,0.41,0,*41
1501524452.16,10143,22.44,74948.3,10.07,0.51,0.51,0,*4C
1501524453.38,10144,22.44,74948.5,10.09,0.91,0.67,0,*4C
1501524454.64,10145,22.44,74950.8,10.07,1.17,0.75,0,*7F
1501524455.88,10146,22.44,74952.3,10.09,1.37,0.79,0,*7C
1501524457.14,10147,22.44,74950.8,10.07,1.43,0.75,0,*7C
1501524458.4,10148,22.44,74950.8,10.07,1.55,0.83,0,*7D
1501524459.65,10149,22.44,74952.5,10.07,1.67,0.63,0,*73
1501524460.86,10150,22.44,74948.3,10.09,1.75,0.47,0,*70
1501524462.11,10151,22.44,74950.3,10.07,1.67,0.33,0,*7F
1501524463.36,10152,22.44,74950.8,10.07,1.59,0.13,0,*73
1501524464.56,10153,22.44,74948.8,10.09,1.51,0.01,0,*47
1501524465.77,10154,22.44,74950.0,10.09,1.51,-0.19,0,*54
1501524467.0,10155,22.44,74948.5,10.09,1.55,-0.23,0,*58
1501524468.26,10156,22.44,74948.5,10.07,1.59,-0.27,0,*5D
1501524469.5,10157,22.44,74946.5,10.07,1.59,-0.49,0,*54
1501524470.71,10158,22.44,74948.5,10.09,1.51,-0.69,0,*5F
1501524471.91,10159,22.44,74946.0,10.09,1.41,-0.85,0,*5D
1501524473.18,10160,22.44,74948.5,10.07,1.17,-1.09,0,*6F
1501524474.42,10161,22.44,74946.8,10.07,0.79,-1.25,0,*59
1501524475.67,10162,22.44,74944.5,10.07,0.63,-1.35,0,*50
1501524476.91,10163,22.44,74948.3,10.09,0.51,-1.35,0,*5E
1501524478.14,10164,22.44,74946.0,10.07,0.21,-1.51,0,*52
1501524479.36,10165,22.44,74946.0,10.07,-0.11,-1.59,0,*75
1501524480.57,10166,22.44,74946.3,10.09,-0.37,-1.43,0,*77
1501524481.81,10167,22.44,74944.3,10.07,-0.61,-1.47,0,*7F
1501524483.05,10168,22.44,74946.8,10.07,-0.89,-1.51,0,*71
1501524484.28,10169,22.44,74944.8,10.09,-1.21,-1.43,0,*4E
1501524485.49,10170,22.44,74944.3,10.09,-1.47,-1.33,0,*41
1501524486.69,10171,22.44,74946.0,10.09,-1.71,-1.25,0,*42
1501524487.91,10172,22.44,74946.5,10.09,-1.99,-1.25,0,*47
1501524489.12,10173,22.44,74948.8,10.09,-2.19,-1.09,0,*43
1501524490.33,10174,22.44,74948.0,10.09,-2.23,-1.05,0,*41
1501524491.54,10175,22.44,74948.5,10.09,-2.35,-0.97,0,*7D
1501524492.75,10176,22.44,74950.8,10.09,-2.43,-0.85,0,*7C
1501524493.94,10177,22.44,74954.5,10.09,-2.35,-0.73,0,*75
1501524495.19,10178,22.44,74950.0,10.07,-2.47,-0.77,0,*75
1501524496.43,10179,22.44,74950.3,10.07,-2.63,-0.53,0,*74
1501524497.68,10180,22.44,74950.5,10.07,-2.71,-0.41,0,*72
1501524498.93,10181,22.44,74950.5,10.07,-2.75,-0.37,0,*76
1501524500.18,10182,22.44,74948.3,10.07,-2.75,-0.33,0,*71
1501524501.39,10183,22.44,74950.8,10.09,-2.71,-0.29,0,*71
1501524502.62,10184,22.44,74948.3,10.09,-2.67,-0.23,0,*7B
1501524503.89,10185,22.44,74948.3,10.07,-2.51,-0.27,0,*75
1501524505.08,10186,22.44,74946.8,10.09,-2.31,-0.33,0,*7B
1501524506.3,10187,22.44,74950.8,10.09,-2.11,-0.29,0,*73
1501524507.55,10188,22.44,74948.3,10.07,-2.11,-0.37,0,*7D
1501524508.79,10189,22.44,74946.8,10.07,-1.91,-0.33,0,*73
1501524510.04,10190,22.44,74952.0,10.07,-1.71,-0.27,0,*70
1501524511.24,10191,22.44,74948.0,10.09,-1.25,0.17,0,*50
1501524512.45,10192,22.44,74944.3,10.07,-0.77,0.43,0,*6A
1501524513.66,10193,22.44,74946.3,10.07,-0.11,0.43,0,*6B
1501524514.9,10194,22.44,74948.3,10.07,0.33,0.33,0,*46
1501524516.14,10195,22.44,74948.3,10.07,0.47,-0.15,0,*6D
1501524517.36,10196,22.44,74950.8,10.07,0.37,-0.65,0,*6E
1501524518.6,10197,22.44,74950.0,10.07,0.25,-1.17,0,*58
1501524519.82,10198,22.44,74948.3,10.07,-0.03,-1.71,0,*4E